sat.trackr.live / text

‹ back to catalog

STARLINK-31251

NORAD 58836 · 2024-017L

PAYLOAD ACTIVE UNKNOWN

§ Identity

Operator
Country
US
Launch date
2024-01-24
Launch site
AFWTR
Launch vehicle
Mass (kg)
RCS (m²)

Purposes: comms

External: N2YO · Heavens-Above · Gunter

§ Orbital elements

Epoch: 2026-05-25T03:44:16.578816Z

Period
94.11 min
Inclination
53.1599°
Eccentricity
0.0000991
Mean motion
15.30192165 rev/d
Perigee alt
474.6 km
Apogee alt
475.9 km
Semi-major
6,853.4 km
B*
3.4117e-5
RAAN
209.1315°
Arg perigee
95.6028°
Mean anomaly
264.5086°
Rev number
13,187

§ Raw data

STARLINK-312511 58836U 24017L   26145.15574744  .00000651  00000+0  34117-4 0  99902 58836  53.1599 209.1315 0000991  95.6028 264.5086 15.30192165131878

JSON: /api/v1/satellites/58836 · /tle

For live sub-satellite position, see the globe view (requires WebGL).

§ Visibility from observer

Set your observer location to see the next 7 days of passes ≥ 10°. The values pass through the URL so the page stays shareable.

No JS? Fill the form by hand. The geolocation button needs JavaScript.